Location: *
(49.5667°N, 1.3667°W)
Time: 20:27:36
(UTC+00:00)

COSMO-SKYMED 1 - Pass Details

Date: 20 September 2019
Orbit: 621 x 623 km, 97.9° (Epoch: 21 October)

Event Time Altitude Azimuth Distance (km) Brightness Sun altitude
Rises 18:43:20 0° 10° (N) 2,917 6.0 -6.4°
Reaches altitude 10° 18:45:33 10° 6° (N) 2,005 5.2 -6.8°
Maximum altitude 18:49:49 57° 289° (WNW) 741 3.4 -7.5°
Drops below altitude 10° 18:54:04 10° 211° (SSW) 1,989 5.4 -8.1°
Sets 18:56:16 0° 207° (SSW) 2,890 6.2 -8.5°
